Date,TemperatureHighF,TemperatureAvgF,TemperatureLowF,DewpointHighF,DewpointAvgF,DewpointLowF,HumidityHigh,HumidityAvg,HumidityLow,PressureMaxIn,PressureMinIn,WindSpeedMaxMPH,WindSpeedAvgMPH,GustSpeedMaxMPH,PrecipitationSumIn
2013-9-1,86,73,63,74,69,63,100,88,63,29.92,29.85,0,-999,0,0.01
2013-9-2,87,75,65,72,67,62,100,80,53,29.89,29.82,0,-999,0,0.01
2013-9-3,80,70,60,65,61,56,95,74,49,30.06,29.85,0,-999,0,0.01
2013-9-4,80,64,52,63,57,52,100,80,54,30.16,30.06,0,-999,0,0.01
2013-9-5,79,68,55,64,58,54,95,73,50,30.19,30.12,0,-999,0,0.00
2013-9-6,74,60,47,55,51,46,99,75,44,30.31,30.18,0,-999,0,0.00
2013-9-7,82,62,47,59,53,46,100,76,42,30.19,30.02,0,-999,0,0.00
2013-9-8,86,72,60,68,62,56,92,74,50,30.09,29.97,0,-999,0,0.00
2013-9-9,77,68,61,66,62,55,95,82,68,30.23,30.09,0,-999,0,0.00
2013-9-10,91,75,62,74,68,61,100,82,55,30.23,30.15,0,-999,0,0.00
2013-9-11,91,75,67,75,70,67,100,86,57,30.24,30.10,0,-999,0,0.68
2013-9-12,86,73,65,74,67,63,100,85,55,30.12,29.86,0,-999,0,0.70
2013-9-13,69,62,54,63,56,49,99,81,60,30.03,29.83,0,-999,0,0.21
2013-9-14,68,56,47,51,48,45,94,77,52,30.20,30.03,0,-999,0,0.10
2013-9-15,76,56,43,60,50,42,100,85,55,30.23,30.11,0,-999,0,0.00
2013-9-16,68,59,52,59,55,50,98,87,64,30.27,30.10,0,-999,0,0.03
2013-9-17,66,55,47,53,50,46,96,84,60,30.45,30.32,0,-999,0,0.00
2013-9-18,40,39,39,40,39,39,100,99,99,30.32,30.32,0,-999,0,0.00
2013-9-19,75,68,57,64,61,56,97,80,64,30.21,30.11,0,-999,0,0.00
2013-9-20,80,66,54,68,62,54,100,88,61,30.12,29.96,0,-999,0,0.00
2013-9-21,73,66,62,67,64,62,100,94,78,29.96,29.75,0,-999,0,0.02
2013-9-22,55,52,49,49,48,47,93,87,81,30.02,29.97,0,-999,0,0.01
2013-9-23,66,53,46,50,47,45,98,81,52,30.14,30.02,0,-999,0,0.00
2013-9-24,70,57,38,57,51,38,100,81,58,30.15,30.00,0,-999,0,0.00
2013-9-25,72,60,45,59,54,45,100,82,56,30.03,29.92,0,-999,0,0.00
2013-9-26,75,60,48,55,51,46,99,76,37,30.11,29.97,0,-999,0,0.00
2013-9-27,74,57,44,58,51,44,100,81,48,30.24,30.11,0,-999,0,0.00
2013-9-28,69,56,47,57,51,46,100,85,57,30.34,30.25,0,-999,0,0.00
2013-9-29,72,57,43,57,50,43,100,80,51,30.24,30.09,0,-999,0,0.00
2013-9-30,71,63,46,61,57,46,100,81,62,30.12,30.03,0,-999,0,0.00